Location: Juniper Campground
(35.7953°N, 106.2814°W)
Time: 07:39:06
(UTC-07:00)

OTV 5 (USA 277) - Visible Passes

Search period start: 21 January 2019 00:00
Search period end: 31 January 2019 00:00
Orbit: 339 x 349 km, 54.5° (Epoch: 15 January)

Date Brightness Start Highest point End Pass type
(mag) Time Alt. Az. Time Alt. Az. Time Alt. Az.
23 Jan ? 06:18:42 10° S 06:20:56 21° SE 06:23:12 10° ENE visible
24 Jan ? 06:41:34 10° SW 06:44:26 85° NW 06:47:21 10° NE visible
25 Jan ? 05:31:13 10° S 05:33:23 20° SE 05:35:35 10° ENE visible
26 Jan ? 05:55:10 22° SW 05:56:53 89° E 05:59:47 10° NE visible
27 Jan ? 04:47:46 11° E 04:47:46 11° E 04:47:58 10° ENE visible
27 Jan ? 06:19:16 17° WNW 06:20:37 23° NW 06:23:01 10° NNE visible
28 Jan ? 05:11:29 16° NE 05:11:29 16° NE 05:12:13 10° NE visible
29 Jan ? 05:34:55 14° N 05:34:55 14° N 05:35:29 10° NNE visible
